Location: Fornova de Taro
(44.7000°N, 10.1000°E)
Time: 23:48:34
(UTC+00:00)

Cosmos 332 Rocket - Pass Details

Date: 26 May 2022
Orbit: 681 x 703 km, 74.0° (Epoch: 02 July)

Event Time Altitude Azimuth Distance (km) Brightness Sun altitude
Exits shadow 00:28:27 56° 162° (SSE) 810 3.8 -22.2°
Maximum altitude 00:29:17 69° 108° (ESE) 731 3.8 -22.1°
Drops below altitude 10° 00:34:02 10° 26° (NNE) 2,131 7.4 -21.9°
Sets 00:36:21 0° 24° (NNE) 3,051 8.7 -21.7°
